Regional Weather Roundup
Issued by NWS

Home | Current Version | Previous Version | Graphics & Text | Print | Product List | Glossary Off
Versions: 1 2 3 4 5 6 7 8 9 10 11 12 13 14 15 16 17 18 19 20 21 22 23 24 25 26 27 28 29 30 31 32 33 34 35 36 37 38 39 40 41 42 43 44 45 46 47 48 49 50

000
ASUS43 KTOP 071208
RWRKS

WEATHER ROUNDUP FOR KANSAS
NATIONAL WEATHER SERVICE GOODLAND KS
600 AM CST SUN FEB 07 2016

NOTE:  "FAIR" INDICATES FEW OR NO CLOUDS BELOW 12,000 FEET WITH NO
SIGNIFICANT WEATHER AND/OR OBSTRUCTIONS TO VISIBILITY.

KSZ001>006-013>018-027>032-041>047-071300-
NORTHWEST KANSAS

CITY           SKY/WX    TMP DP  RH WIND       PRES   REMARKS
GOODLAND       CLOUDY    30  19  63 NW13      30.15R WCI  20
6HR MIN TEMP:  27; 6HR MAX TEMP:  33;

HAYS           CLOUDY    37  21  52 N6        30.10F
HILL CITY      CLOUDY    36  28  73 NW8       30.12R
6HR MIN TEMP:  35; 6HR MAX TEMP:  40;

RUSSELL        CLOUDY    37  29  72 NW8       30.09R
6HR MIN TEMP:  33; 6HR MAX TEMP:  39;

$$

KSZ061>065-074>080-084>089-071300-
SOUTHWEST KANSAS

CITY           SKY/WX    TMP DP  RH WIND       PRES   REMARKS
DODGE CITY     CLOUDY    27  21  78 N6        30.12S
6HR MIN TEMP:  27; 6HR MAX TEMP:  37;

ELKHART          N/A     36  19  50 NW9         N/A
GARDEN CITY    PTCLDY    32  25  75 NW10      30.14R WCI  24
6HR MIN TEMP:  29; 6HR MAX TEMP:  37;

GREAT BEND     CLOUDY    36  25  64 NW9       30.12R
LIBERAL        CLOUDY    28  18  64 N8        30.13R
PRATT          CLOUDY    32  24  72 NW10      30.11S WCI  23
6HR MIN TEMP:  30; 6HR MAX TEMP:  34;

$$

KSZ066>073-081>083-090>101-071300-
SOUTHEAST KANSAS

CITY           SKY/WX    TMP DP  RH WIND       PRES   REMARKS
CHANUTE        CLOUDY    35  27  72 SW9       30.07R
6HR MIN TEMP:  35; 6HR MAX TEMP:  38;

COFFEYVILLE    CLOUDY    33  27  78 S7        30.11S
6HR MIN TEMP:  32; 6HR MAX TEMP:  38;

HUTCHINSON     PTCLDY    34  24  67 NW9       30.09R
6HR MIN TEMP:  32; 6HR MAX TEMP:  37;

MEDICINE LODGE   N/A     31  22  69 NW6       30.11R
NEWTON         CLOUDY    34  19  55 W8        30.08R
PARSONS        CLOUDY    36  27  69 W7        30.10R
6HR MIN TEMP:  32; 6HR MAX TEMP:  39;

WICHITA INTL   CLOUDY    31  24  75 W5        30.08R
6HR MIN TEMP:  30; 6HR MAX TEMP:  39;

WICHITA JABRA  PTCLDY    34  24  67 W12       30.07R WCI  25
6HR MIN TEMP:  33; 6HR MAX TEMP:  41;

WICHITA MCCONL CLOUDY    33  25  70 W6        30.08R
WINFIELD       CLOUDY    32  26  78 SW5       30.10S
6HR MIN TEMP:  32; 6HR MAX TEMP:  36;

$$

KSZ007>012-019>026-033>040-048>060-102>105-071300-
NORTHEAST KANSAS

CITY           SKY/WX    TMP DP  RH WIND       PRES   REMARKS
CONCORDIA      CLOUDY    36  28  73 W8        30.05R
6HR MIN TEMP:  33; 6HR MAX TEMP:  39;

EMPORIA        CLOUDY    37  25  61 W13       30.04R WCI  29
6HR MIN TEMP:  37; 6HR MAX TEMP:  41;

LAWRENCE       CLOUDY    38  26  62 W9        30.01R
6HR MIN TEMP:  38; 6HR MAX TEMP:  40;

MANHATTAN      PTCLDY    36  27  69 CALM      30.04R
6HR MIN TEMP:  35; 6HR MAX TEMP:  41;

MARYSVILLE     CLOUDY    36  30  80 W5        30.02S
OLATHE IND     CLOUDY    37  27  67 SW8       30.01R
6HR MIN TEMP:  36; 6HR MAX TEMP:  40;

OLATHE EXE     PTCLDY    37  26  64 SW10      30.00S WCI  30
6HR MIN TEMP:  35; 6HR MAX TEMP:  39;

SALINA         CLOUDY    37  27  67 W5        30.08R
6HR MIN TEMP:  37; 6HR MAX TEMP:  42;

TOPEKA BILLARD CLOUDY    40  25  55 W9        30.02R
6HR MIN TEMP:  40; 6HR MAX TEMP:  42;

TOPEKA FORBES  CLOUDY    41  26  55 W10       30.00R
6HR MIN TEMP:  37; 6HR MAX TEMP:  41;

$$



USA.gov is the U.S. government's official web portal to all federal, state and local government web resources and services.